| time (UTC) | temp F | wind direction | speed MPH | gust MPH | rain 1hr in | rain 24hr in | rain mn in | humidity % | barometer mb |
| 20260506151002 | 46 | 262 | 8.0 | 0.0 | 0.00 | 0.00 | 0.00 | 92 | 1007.3 |
| 20260506150501 | 46 | 268 | 8.0 | 0.0 | 0.00 | 0.00 | 0.00 | 91 | 1007.2 |
| 20260506150003 | 47 | 253 | 7.0 | 0.0 | 0.00 | 0.00 | 0.00 | 91 | 1007.5 |
| 20260506145502 | 47 | 258 | 14.0 | 0.0 | 0.00 | 0.00 | 0.00 | 91 | 1007.6 |
| 20260506145002 | 47 | 282 | 14.0 | 0.0 | 0.00 | 0.00 | 0.00 | 91 | 1007.6 |
| 20260506144501 | 47 | 242 | 14.0 | 0.0 | 0.00 | 0.00 | 0.00 | 91 | 1007.6 |
| 20260506144002 | 47 | 261 | 13.0 | 0.0 | 0.00 | 0.00 | 0.00 | 90 | 1007.4 |
| 20260506143501 | 48 | 269 | 9.0 | 0.0 | 0.00 | 0.00 | 0.00 | 90 | 1007.2 |
| 20260506143001 | 49 | 265 | 11.0 | 0.0 | 0.00 | 0.00 | 0.00 | 89 | 1006.9 |
| 20260506142502 | 49 | 269 | 12.0 | 0.0 | 0.00 | 0.00 | 0.00 | 88 | 1006.5 |
| 20260506142002 | 50 | 278 | 18.0 | 0.0 | 0.00 | 0.00 | 0.00 | 85 | 1006.5 |
| 20260506141502 | 50 | 270 | 9.0 | 0.0 | 0.00 | 0.00 | 0.00 | 81 | 1006.5 |
| 20260506141002 | 53 | 279 | 14.0 | 0.0 | 0.00 | 0.00 | 0.00 | 74 | 1006.2 |
| 20260506140502 | 57 | 240 | 13.0 | 0.0 | 0.00 | 0.00 | 0.00 | 71 | 1005.9 |
| 20260506140001 | 57 | 246 | 3.0 | 0.0 | 0.00 | 0.00 | 0.00 | 71 | 1005.8 |
| 20260506135501 | 58 | 243 | 3.0 | 0.0 | 0.00 | 0.00 | 0.00 | 71 | 1005.6 |
| 20260506135001 | 58 | 243 | 6.0 | 0.0 | 0.00 | 0.00 | 0.00 | 71 | 1005.5 |
| 20260506134502 | 59 | 244 | 5.0 | 0.0 | 0.00 | 0.00 | 0.00 | 70 | 1005.5 |
| 20260506134002 | 59 | 272 | 2.0 | 0.0 | 0.00 | 0.00 | 0.00 | 68 | 1005.5 |
| 20260506133502 | 59 | 282 | 0.0 | 0.0 | 0.00 | 0.00 | 0.00 | 70 | 1005.4 |
| 20260506133002 | 59 | 284 | 8.0 | 0.0 | 0.00 | 0.00 | 0.00 | 69 | 1005.5 |
| 20260506132501 | 58 | 243 | 2.0 | 0.0 | 0.00 | 0.00 | 0.00 | 70 | 1005.5 |
| 20260506132003 | 59 | 274 | 8.0 | 0.0 | 0.00 | 0.00 | 0.00 | 72 | 1005.4 |
| 20260506131502 | 59 | 256 | 5.0 | 0.0 | 0.00 | 0.00 | 0.00 | 70 | 1005.5 |
| 20260506131002 | 59 | 217 | 5.0 | 0.0 | 0.00 | 0.00 | 0.00 | 73 | 1005.4 |
| 20260506130501 | 58 | 218 | 3.0 | 0.0 | 0.00 | 0.00 | 0.00 | 74 | 1005.4 |
| 20260506130002 | 57 | 183 | 3.0 | 0.0 | 0.00 | 0.00 | 0.00 | 73 | 1005.3 |
| 20260506125502 | 57 | 213 | 4.0 | 0.0 | 0.00 | 0.00 | 0.00 | 73 | 1005.6 |
| 20260506125002 | 57 | 209 | 5.0 | 0.0 | 0.00 | 0.00 | 0.00 | 74 | 1005.7 |
| 20260506124502 | 57 | 222 | 5.0 | 0.0 | 0.00 | 0.00 | 0.00 | 73 | 1005.6 |
| 20260506124001 | 57 | 248 | 4.0 | 0.0 | 0.00 | 0.00 | 0.00 | 71 | 1005.7 |
| 20260506123502 | 58 | 257 | 4.0 | 0.0 | 0.00 | 0.00 | 0.00 | 69 | 1005.5 |
| 20260506123001 | 58 | 238 | 4.0 | 0.0 | 0.00 | 0.00 | 0.00 | 68 | 1005.6 |
| 20260506122502 | 58 | 226 | 4.0 | 0.0 | 0.00 | 0.00 | 0.00 | 66 | 1005.5 |
| 20260506122001 | 58 | 319 | 2.0 | 0.0 | 0.00 | 0.00 | 0.00 | 67 | 1005.4 |
| 20260506121502 | 58 | 238 | 2.0 | 0.0 | 0.00 | 0.00 | 0.00 | 69 | 1005.4 |
| 20260506121002 | 58 | 253 | 2.0 | 0.0 | 0.00 | 0.00 | 0.00 | 69 | 1005.3 |
| 20260506120502 | 57 | 230 | 1.0 | 0.0 | 0.00 | 0.00 | 0.00 | 67 | 1005.3 |
| 20260506120002 | 57 | 272 | 3.0 | 0.0 | 0.00 | 0.00 | 0.00 | 69 | 1005.2 |
| 20260506115501 | 58 | 278 | 3.0 | 0.0 | 0.00 | 0.00 | 0.00 | 69 | 1005.1 |
| 20260506115002 | 58 | 301 | 1.0 | 0.0 | 0.00 | 0.00 | 0.00 | 67 | 1005.1 |
| 20260506114501 | 57 | 307 | 2.0 | 0.0 | 0.00 | 0.00 | 0.00 | 68 | 1005.1 |
| 20260506114002 | 58 | 334 | 3.0 | 0.0 | 0.00 | 0.00 | 0.00 | 68 | 1005.1 |
| 20260506113502 | 58 | 350 | 1.0 | 0.0 | 0.00 | 0.00 | 0.00 | 67 | 1005.1 |
| 20260506113002 | 59 | 326 | 2.0 | 0.0 | 0.00 | 0.00 | 0.00 | 65 | 1005.3 |
| 20260506112501 | 58 | 356 | 0.0 | 0.0 | 0.00 | 0.00 | 0.00 | 66 | 1005.3 |
| 20260506112004 | 58 | 335 | 2.0 | 0.0 | 0.00 | 0.00 | 0.00 | 68 | 1005.3 |
| 20260506111501 | 57 | 356 | 0.0 | 0.0 | 0.00 | 0.00 | 0.00 | 66 | 1005.3 |
| 20260506111001 | 58 | 73 | 1.0 | 0.0 | 0.00 | 0.00 | 0.00 | 67 | 1005.4 |
| 20260506110502 | 58 | 29 | 1.0 | 0.0 | 0.00 | 0.00 | 0.00 | 66 | 1005.6 |
| 20260506110001 | 58 | 96 | 1.0 | 0.0 | 0.00 | 0.00 | 0.00 | 68 | 1005.6 |
| 20260506105502 | 58 | 354 | 2.0 | 0.0 | 0.00 | 0.00 | 0.00 | 69 | 1005.6 |
| 20260506105001 | 58 | 266 | 0.0 | 0.0 | 0.00 | 0.00 | 0.00 | 69 | 1005.6 |
| 20260506104502 | 58 | 0 | 0.0 | 0.0 | 0.00 | 0.00 | 0.00 | 70 | 1005.5 |
| 20260506104001 | 58 | 212 | 1.0 | 0.0 | 0.00 | 0.00 | 0.00 | 69 | 1005.7 |
| 20260506103503 | 57 | 347 | 2.0 | 0.0 | 0.00 | 0.00 | 0.00 | 70 | 1005.7 |
| 20260506103001 | 57 | 28 | 2.0 | 0.0 | 0.00 | 0.00 | 0.00 | 70 | 1005.7 |
| 20260506102502 | 58 | 333 | 4.0 | 0.0 | 0.00 | 0.00 | 0.00 | 69 | 1005.8 |
| 20260506102001 | 59 | 304 | 2.0 | 0.0 | 0.00 | 0.00 | 0.00 | 71 | 1005.8 |
| 20260506101501 | 57 | 50 | 3.0 | 0.0 | 0.00 | 0.00 | 0.00 | 70 | 1005.7 |
| 20260506101002 | 57 | 1 | 2.0 | 0.0 | 0.00 | 0.00 | 0.00 | 72 | 1005.8 |
| 20260506100502 | 57 | 266 | 1.0 | 0.0 | 0.00 | 0.00 | 0.00 | 73 | 1005.8 |
| 20260506100002 | 56 | 192 | 2.0 | 0.0 | 0.00 | 0.00 | 0.00 | 73 | 1006.0 |
| 20260506095501 | 56 | 268 | 3.0 | 0.0 | 0.00 | 0.00 | 0.00 | 71 | 1006.0 |
| 20260506095002 | 56 | 342 | 2.0 | 0.0 | 0.00 | 0.00 | 0.00 | 72 | 1005.9 |
| 20260506094501 | 56 | 171 | 1.0 | 0.0 | 0.00 | 0.00 | 0.00 | 75 | 1005.8 |
| 20260506094002 | 55 | 32 | 2.0 | 0.0 | 0.00 | 0.00 | 0.00 | 78 | 1005.7 |
| 20260506093501 | 54 | 41 | 4.0 | 0.0 | 0.00 | 0.00 | 0.00 | 79 | 1005.7 |
| 20260506093002 | 54 | 28 | 5.0 | 0.0 | 0.00 | 0.00 | 0.00 | 79 | 1005.6 |
| 20260506092502 | 55 | 30 | 4.0 | 0.0 | 0.00 | 0.00 | 0.00 | 79 | 1005.8 |
| 20260506092001 | 55 | 42 | 2.0 | 0.0 | 0.00 | 0.00 | 0.00 | 79 | 1005.9 |
| 20260506091502 | 55 | 135 | 1.0 | 0.0 | 0.00 | 0.00 | 0.00 | 80 | 1006.0 |
| 20260506091001 | 55 | 127 | 0.0 | 0.0 | 0.00 | 0.00 | 0.00 | 80 | 1006.1 |
| 20260506090502 | 55 | 147 | 1.0 | 0.0 | 0.00 | 0.00 | 0.00 | 79 | 1006.2 |
| 20260506090001 | 55 | 211 | 1.0 | 0.0 | 0.00 | 0.00 | 0.00 | 79 | 1006.2 |
| 20260506085501 | 55 | 128 | 1.0 | 0.0 | 0.00 | 0.00 | 0.00 | 79 | 1006.2 |
| 20260506085001 | 55 | 40 | 2.0 | 0.0 | 0.00 | 0.00 | 0.00 | 77 | 1006.0 |
| 20260506084502 | 55 | 343 | 1.0 | 0.0 | 0.00 | 0.00 | 0.00 | 77 | 1006.1 |
| 20260506084002 | 55 | 33 | 1.0 | 0.0 | 0.00 | 0.00 | 0.00 | 77 | 1006.1 |
| 20260506083502 | 55 | 57 | 1.0 | 0.0 | 0.00 | 0.00 | 0.00 | 78 | 1006.1 |
| 20260506083002 | 54 | 61 | 1.0 | 0.0 | 0.00 | 0.00 | 0.00 | 79 | 1006.0 |
| 20260506082501 | 54 | 0 | 0.0 | 0.0 | 0.00 | 0.00 | 0.00 | 81 | 1005.9 |
| 20260506082002 | 54 | 93 | 3.0 | 0.0 | 0.00 | 0.00 | 0.00 | 81 | 1005.9 |
| 20260506081501 | 54 | 120 | 4.0 | 0.0 | 0.00 | 0.00 | 0.00 | 80 | 1005.9 |
| 20260506081001 | 54 | 87 | 2.0 | 0.0 | 0.00 | 0.00 | 0.00 | 81 | 1005.8 |
| 20260506080501 | 54 | 103 | 4.0 | 0.0 | 0.00 | 0.00 | 0.00 | 82 | 1005.8 |
| 20260506073502 | 51 | 75 | 2.0 | 0.0 | 0.00 | 0.00 | 0.00 | 88 | 1006.0 |
| 20260506073001 | 51 | 69 | 2.0 | 0.0 | 0.00 | 0.00 | 0.00 | 89 | 1006.1 |
| 20260506072502 | 51 | 79 | 3.0 | 0.0 | 0.00 | 0.00 | 0.00 | 90 | 1006.1 |
| 20260506072001 | 50 | 60 | 3.0 | 0.0 | 0.00 | 0.00 | 0.00 | 91 | 1006.0 |
| 20260506071502 | 50 | 45 | 3.0 | 0.0 | 0.00 | 0.00 | 0.00 | 91 | 1006.0 |
| 20260506071002 | 50 | 43 | 4.0 | 0.0 | 0.00 | 0.00 | 0.00 | 91 | 1005.9 |
| 20260506070502 | 50 | 40 | 3.0 | 0.0 | 0.00 | 0.00 | 0.00 | 91 | 1006.0 |
| 20260506062502 | 49 | 179 | 2.0 | 0.0 | 0.00 | 0.00 | 0.00 | 94 | 1006.4 |
| 20260506062002 | 49 | 180 | 2.0 | 0.0 | 0.00 | 0.00 | 0.00 | 94 | 1006.2 |
| 20260506061502 | 49 | 99 | 0.0 | 0.0 | 0.00 | 0.00 | 0.00 | 95 | 1006.1 |
| 20260506061001 | 48 | 139 | 0.0 | 0.0 | 0.00 | 0.00 | 0.00 | 96 | 1006.3 |
| 20260506060502 | 48 | 60 | 2.0 | 0.0 | 0.00 | 0.00 | 0.00 | 95 | 1006.2 |
| 20260506051002 | 47 | 0 | 0.0 | 0.0 | 0.00 | 0.00 | 0.00 | 96 | 1006.2 |
| 20260506050501 | 47 | 40 | 1.0 | 0.0 | 0.00 | 0.00 | 0.00 | 96 | 1006.3 |
| 20260506045002 | 46 | 75 | 2.0 | 0.0 | 0.00 | 0.00 | 0.00 | 97 | 1006.4 |
| 20260506044501 | 47 | 312 | 1.0 | 0.0 | 0.00 | 0.00 | 0.00 | 97 | 1006.4 |
| 20260506044001 | 46 | 314 | 3.0 | 0.0 | 0.00 | 0.00 | 0.00 | 97 | 1006.3 |
| 20260506043502 | 45 | 320 | 2.0 | 0.0 | 0.00 | 0.00 | 0.00 | 97 | 1006.3 |
| 20260506043002 | 45 | 313 | 2.0 | 0.0 | 0.00 | 0.00 | 0.00 | 97 | 1006.5 |
| 20260506042502 | 46 | 321 | 2.0 | 0.0 | 0.00 | 0.00 | 0.00 | 96 | 1006.6 |
| 20260506042002 | 47 | 334 | 3.0 | 0.0 | 0.00 | 0.00 | 0.00 | 97 | 1006.7 |
| 20260506041502 | 47 | 154 | 0.0 | 0.0 | 0.00 | 0.00 | 0.00 | 97 | 1006.7 |
| 20260506041001 | 47 | 156 | 1.0 | 0.0 | 0.00 | 0.00 | 0.00 | 96 | 1006.8 |
| 20260506040502 | 47 | 153 | 2.0 | 0.0 | 0.00 | 0.00 | 0.00 | 95 | 1006.8 |
| 20260506040001 | 47 | 143 | 2.0 | 0.0 | 0.00 | 0.00 | 0.00 | 94 | 1006.8 |
| 20260506035501 | 47 | 148 | 1.0 | 0.0 | 0.00 | 0.00 | 0.00 | 93 | 1007.0 |
| 20260506035001 | 47 | 151 | 2.0 | 0.0 | 0.00 | 0.00 | 0.00 | 92 | 1006.9 |
| 20260506034501 | 49 | 176 | 0.0 | 0.0 | 0.00 | 0.00 | 0.00 | 94 | 1006.9 |
| 20260506034002 | 49 | 301 | 1.0 | 0.0 | 0.00 | 0.00 | 0.00 | 94 | 1006.9 |
| 20260506033501 | 48 | 314 | 2.0 | 0.0 | 0.00 | 0.00 | 0.00 | 93 | 1006.9 |
| 20260506033002 | 48 | 324 | 3.0 | 0.0 | 0.00 | 0.00 | 0.00 | 93 | 1007.0 |
| 20260506032501 | 48 | 328 | 2.0 | 0.0 | 0.00 | 0.00 | 0.00 | 92 | 1007.1 |
| 20260506032002 | 49 | 320 | 1.0 | 0.0 | 0.00 | 0.00 | 0.00 | 92 | 1007.1 |
| 20260506031502 | 49 | 325 | 2.0 | 0.0 | 0.00 | 0.00 | 0.00 | 92 | 1007.1 |
| 20260506031001 | 49 | 299 | 1.0 | 0.0 | 0.00 | 0.00 | 0.00 | 92 | 1007.4 |
| 20260506030502 | 49 | 330 | 1.0 | 0.0 | 0.00 | 0.00 | 0.00 | 92 | 1007.4 |
| 20260506030002 | 49 | 303 | 1.0 | 0.0 | 0.00 | 0.00 | 0.00 | 92 | 1007.5 |
| 20260506025501 | 48 | 308 | 1.0 | 0.0 | 0.00 | 0.00 | 0.00 | 91 | 1007.5 |
| 20260506025001 | 49 | 331 | 2.0 | 0.0 | 0.00 | 0.00 | 0.00 | 91 | 1007.6 |
| 20260506024502 | 49 | 348 | 1.0 | 0.0 | 0.00 | 0.00 | 0.00 | 91 | 1007.5 |
| 20260506024001 | 49 | 119 | 1.0 | 0.0 | 0.00 | 0.00 | 0.00 | 90 | 1007.5 |
| 20260506023502 | 49 | 0 | 0.0 | 0.0 | 0.00 | 0.00 | 0.00 | 91 | 1007.5 |
| 20260506023002 | 49 | 130 | 0.0 | 0.0 | 0.00 | 0.00 | 0.00 | 91 | 1007.6 |
| 20260506022501 | 49 | 0 | 0.0 | 0.0 | 0.00 | 0.00 | 0.00 | 89 | 1007.6 |
| 20260506022002 | 50 | 285 | 0.0 | 0.0 | 0.00 | 0.00 | 0.00 | 90 | 1007.6 |
| 20260506021503 | 50 | 187 | 1.0 | 0.0 | 0.00 | 0.00 | 0.00 | 90 | 1007.6 |
| 20260506021001 | 50 | 0 | 0.0 | 0.0 | 0.00 | 0.00 | 0.00 | 89 | 1007.6 |
| 20260506020502 | 50 | 183 | 0.0 | 0.0 | 0.00 | 0.00 | 0.00 | 89 | 1007.6 |
| 20260506020002 | 50 | 0 | 0.0 | 0.0 | 0.00 | 0.00 | 0.00 | 89 | 1007.7 |
| 20260506015501 | 50 | 0 | 0.0 | 0.0 | 0.00 | 0.00 | 0.00 | 90 | 1007.8 |
| 20260506015002 | 49 | 0 | 0.0 | 0.0 | 0.00 | 0.00 | 0.00 | 90 | 1007.8 |
| 20260506014503 | 49 | 0 | 0.0 | 0.0 | 0.00 | 0.00 | 0.00 | 90 | 1007.9 |
| 20260506014001 | 49 | 33 | 2.0 | 0.0 | 0.00 | 0.00 | 0.00 | 89 | 1007.8 |
| 20260506013502 | 49 | 35 | 1.0 | 0.0 | 0.00 | 0.00 | 0.00 | 90 | 1007.9 |
| 20260506013002 | 49 | 63 | 1.0 | 0.0 | 0.00 | 0.00 | 0.00 | 89 | 1007.9 |
| 20260506012501 | 49 | 0 | 0.0 | 0.0 | 0.00 | 0.00 | 0.00 | 88 | 1007.9 |
| 20260506012002 | 49 | 282 | 2.0 | 0.0 | 0.00 | 0.00 | 0.00 | 89 | 1008.0 |
| 20260506011502 | 50 | 260 | 1.0 | 0.0 | 0.00 | 0.00 | 0.00 | 89 | 1008.0 |
| 20260506011001 | 50 | 300 | 1.0 | 0.0 | 0.00 | 0.00 | 0.00 | 88 | 1007.8 |
| 20260506010502 | 50 | 351 | 0.0 | 0.0 | 0.00 | 0.00 | 0.00 | 88 | 1007.9 |
| 20260506010002 | 50 | 267 | 1.0 | 0.0 | 0.00 | 0.00 | 0.00 | 88 | 1008.1 |
| 20260506005501 | 50 | 241 | 2.0 | 0.0 | 0.00 | 0.00 | 0.00 | 88 | 1008.2 |
| 20260506005002 | 50 | 244 | 3.0 | 0.0 | 0.00 | 0.00 | 0.00 | 88 | 1008.3 |
| 20260506004502 | 50 | 284 | 2.0 | 0.0 | 0.00 | 0.00 | 0.00 | 87 | 1008.3 |
| 20260506004001 | 50 | 286 | 4.0 | 0.0 | 0.00 | 0.00 | 0.00 | 88 | 1008.3 |
| 20260506003502 | 50 | 238 | 4.0 | 0.0 | 0.00 | 0.00 | 0.00 | 88 | 1008.4 |
| 20260506003002 | 50 | 272 | 1.0 | 0.0 | 0.00 | 0.00 | 0.00 | 87 | 1008.2 |
| 20260506002501 | 50 | 299 | 1.0 | 0.0 | 0.00 | 0.00 | 0.00 | 87 | 1008.2 |
| 20260506002002 | 51 | 332 | 2.0 | 0.0 | 0.00 | 0.00 | 0.00 | 85 | 1008.1 |
| 20260506001502 | 51 | 323 | 0.0 | 0.0 | 0.00 | 0.00 | 0.00 | 87 | 1008.1 |
| 20260506001001 | 50 | 0 | 0.0 | 0.0 | 0.00 | 0.00 | 0.00 | 87 | 1008.3 |
| 20260506000502 | 51 | 0 | 0.0 | 0.0 | 0.00 | 0.00 | 0.00 | 87 | 1008.3 |
| 20260506000002 | 50 | 224 | 1.0 | 0.0 | 0.00 | 0.00 | 0.00 | 88 | 1008.2 |
| 20260505235501 | 50 | 277 | 2.0 | 0.0 | 0.00 | 0.00 | 0.00 | 87 | 1008.3 |
| 20260505235002 | 50 | 224 | 3.0 | 0.0 | 0.00 | 0.00 | 0.00 | 88 | 1008.3 |
| 20260505234502 | 50 | 238 | 2.0 | 0.0 | 0.00 | 0.00 | 0.00 | 88 | 1008.5 |
| 20260505234001 | 50 | 300 | 2.0 | 0.0 | 0.00 | 0.00 | 0.00 | 88 | 1008.5 |
| 20260505233502 | 50 | 229 | 3.0 | 0.0 | 0.00 | 0.00 | 0.00 | 89 | 1008.5 |
| 20260505233002 | 50 | 277 | 1.0 | 0.0 | 0.00 | 0.00 | 0.00 | 89 | 1008.5 |
| 20260505232501 | 50 | 281 | 2.0 | 0.0 | 0.00 | 0.00 | 0.00 | 89 | 1008.6 |
| 20260505232002 | 50 | 316 | 4.0 | 0.0 | 0.00 | 0.00 | 0.00 | 88 | 1008.7 |
| 20260505231502 | 50 | 241 | 2.0 | 0.0 | 0.00 | 0.00 | 0.00 | 88 | 1008.7 |
| 20260505231001 | 50 | 296 | 2.0 | 0.0 | 0.00 | 0.00 | 0.00 | 88 | 1008.7 |
| 20260505230502 | 50 | 283 | 1.0 | 0.0 | 0.00 | 0.00 | 0.00 | 88 | 1008.7 |
| 20260505230002 | 50 | 267 | 2.0 | 0.0 | 0.00 | 0.00 | 0.00 | 88 | 1008.7 |
| 20260505225501 | 50 | 249 | 2.0 | 0.0 | 0.00 | 0.00 | 0.00 | 88 | 1008.7 |
| 20260505225002 | 50 | 221 | 2.0 | 0.0 | 0.00 | 0.00 | 0.00 | 87 | 1008.7 |
| 20260505224502 | 50 | 205 | 4.0 | 0.0 | 0.00 | 0.00 | 0.00 | 88 | 1008.8 |
| 20260505224001 | 50 | 237 | 3.0 | 0.0 | 0.00 | 0.00 | 0.00 | 88 | 1008.8 |
| 20260505223502 | 50 | 242 | 3.0 | 0.0 | 0.00 | 0.00 | 0.00 | 88 | 1008.8 |
| 20260505223003 | 50 | 260 | 2.0 | 0.0 | 0.00 | 0.00 | 0.00 | 88 | 1008.9 |
| 20260505222501 | 51 | 240 | 4.0 | 0.0 | 0.00 | 0.00 | 0.00 | 88 | 1008.9 |
| 20260505222002 | 51 | 250 | 4.0 | 0.0 | 0.00 | 0.00 | 0.00 | 88 | 1008.9 |
| 20260505221502 | 51 | 271 | 4.0 | 0.0 | 0.00 | 0.00 | 0.00 | 89 | 1008.9 |
| 20260505221001 | 51 | 242 | 4.0 | 0.0 | 0.00 | 0.00 | 0.00 | 88 | 1008.9 |
| 20260505220502 | 51 | 266 | 3.0 | 0.0 | 0.00 | 0.00 | 0.00 | 88 | 1008.8 |
| 20260505220002 | 51 | 254 | 2.0 | 0.0 | 0.00 | 0.00 | 0.00 | 88 | 1008.9 |
| 20260505215501 | 51 | 245 | 4.0 | 0.0 | 0.00 | 0.00 | 0.00 | 88 | 1008.8 |
| 20260505215002 | 51 | 258 | 4.0 | 0.0 | 0.00 | 0.00 | 0.00 | 88 | 1008.8 |
| 20260505214502 | 51 | 243 | 4.0 | 0.0 | 0.00 | 0.00 | 0.00 | 89 | 1008.8 |
| 20260505214001 | 50 | 240 | 3.0 | 0.0 | 0.00 | 0.00 | 0.00 | 89 | 1008.8 |
| 20260505213502 | 50 | 240 | 3.0 | 0.0 | 0.00 | 0.00 | 0.00 | 90 | 1008.9 |
| 20260505213002 | 50 | 244 | 2.0 | 0.0 | 0.00 | 0.00 | 0.00 | 90 | 1009.0 |
| 20260505212501 | 51 | 248 | 3.0 | 0.0 | 0.00 | 0.00 | 0.00 | 90 | 1008.9 |
| 20260505212002 | 50 | 266 | 4.0 | 0.0 | 0.00 | 0.00 | 0.00 | 90 | 1009.0 |
| 20260505211502 | 50 | 243 | 2.0 | 0.0 | 0.00 | 0.00 | 0.00 | 90 | 1009.0 |
| 20260505211001 | 50 | 239 | 4.0 | 0.0 | 0.00 | 0.00 | 0.00 | 90 | 1009.0 |
| 20260505210501 | 51 | 239 | 3.0 | 0.0 | 0.00 | 0.00 | 0.00 | 89 | 1008.9 |
| 20260505210002 | 51 | 218 | 6.0 | 0.0 | 0.00 | 0.00 | 0.00 | 90 | 1008.9 |
| 20260505205501 | 51 | 241 | 3.0 | 0.0 | 0.00 | 0.00 | 0.00 | 90 | 1008.9 |
| 20260505205002 | 51 | 222 | 3.0 | 0.0 | 0.00 | 0.00 | 0.00 | 90 | 1009.0 |
| 20260505204502 | 51 | 247 | 4.0 | 0.0 | 0.00 | 0.00 | 0.00 | 90 | 1009.0 |
| 20260505204001 | 51 | 256 | 4.0 | 0.0 | 0.00 | 0.00 | 0.00 | 90 | 1009.1 |
| 20260505203502 | 51 | 243 | 4.0 | 0.0 | 0.00 | 0.00 | 0.00 | 90 | 1009.1 |
| 20260505203002 | 51 | 217 | 4.0 | 0.0 | 0.00 | 0.00 | 0.00 | 91 | 1009.1 |
| 20260505202502 | 51 | 243 | 5.0 | 0.0 | 0.00 | 0.00 | 0.00 | 90 | 1009.1 |
| 20260505202002 | 51 | 233 | 3.0 | 0.0 | 0.00 | 0.00 | 0.00 | 90 | 1009.0 |
| 20260505201502 | 51 | 227 | 3.0 | 0.0 | 0.00 | 0.00 | 0.00 | 89 | 1009.1 |
| 20260505201001 | 52 | 217 | 4.0 | 0.0 | 0.00 | 0.00 | 0.00 | 87 | 1009.0 |
| 20260505200502 | 52 | 245 | 3.0 | 0.0 | 0.00 | 0.00 | 0.00 | 86 | 1009.0 |
| 20260505200003 | 52 | 238 | 4.0 | 0.0 | 0.00 | 0.00 | 0.00 | 86 | 1009.0 |
| 20260505195502 | 52 | 227 | 3.0 | 0.0 | 0.00 | 0.00 | 0.00 | 87 | 1008.9 |
| 20260505195002 | 52 | 222 | 2.0 | 0.0 | 0.00 | 0.00 | 0.00 | 88 | 1008.9 |
| 20260505194502 | 52 | 233 | 2.0 | 0.0 | 0.00 | 0.00 | 0.00 | 89 | 1009.0 |
| 20260505194002 | 52 | 272 | 1.0 | 0.0 | 0.00 | 0.00 | 0.00 | 89 | 1009.0 |
| 20260505193502 | 52 | 214 | 3.0 | 0.0 | 0.00 | 0.00 | 0.00 | 90 | 1009.0 |
| 20260505193002 | 52 | 184 | 3.0 | 0.0 | 0.00 | 0.00 | 0.00 | 90 | 1008.8 |
| 20260505192501 | 52 | 184 | 3.0 | 0.0 | 0.00 | 0.00 | 0.00 | 89 | 1008.8 |
| 20260505192002 | 52 | 198 | 4.0 | 0.0 | 0.00 | 0.00 | 0.00 | 89 | 1008.7 |
| 20260505191501 | 52 | 198 | 6.0 | 0.0 | 0.00 | 0.00 | 0.00 | 88 | 1008.7 |
| 20260505191001 | 53 | 196 | 5.0 | 0.0 | 0.00 | 0.00 | 0.00 | 85 | 1008.7 |
| 20260505190502 | 53 | 223 | 6.0 | 0.0 | 0.00 | 0.00 | 0.00 | 81 | 1008.7 |
| 20260505190002 | 53 | 248 | 7.0 | 0.0 | 0.00 | 0.00 | 0.00 | 83 | 1008.5 |
| 20260505185502 | 53 | 248 | 8.0 | 0.0 | 0.00 | 0.00 | 0.00 | 85 | 1008.8 |
| 20260505185002 | 53 | 220 | 7.0 | 0.0 | 0.00 | 0.00 | 0.00 | 83 | 1008.6 |
| 20260505184502 | 53 | 218 | 4.0 | 0.0 | 0.00 | 0.00 | 0.00 | 82 | 1008.6 |
| 20260505184001 | 54 | 227 | 7.0 | 0.0 | 0.00 | 0.00 | 0.00 | 79 | 1008.4 |
| 20260505183502 | 55 | 242 | 5.0 | 0.0 | 0.00 | 0.00 | 0.00 | 75 | 1008.4 |
| 20260505183002 | 56 | 249 | 6.0 | 0.0 | 0.00 | 0.00 | 0.00 | 72 | 1008.2 |
| 20260505182502 | 57 | 247 | 6.0 | 0.0 | 0.00 | 0.00 | 0.00 | 70 | 1008.0 |
| 20260505182001 | 57 | 258 | 7.0 | 0.0 | 0.00 | 0.00 | 0.00 | 70 | 1008.1 |
| 20260505181502 | 57 | 281 | 8.0 | 0.0 | 0.00 | 0.00 | 0.00 | 69 | 1007.9 |
| 20260505181002 | 58 | 271 | 7.0 | 0.0 | 0.00 | 0.00 | 0.00 | 69 | 1007.7 |
| 20260505180501 | 58 | 245 | 6.0 | 0.0 | 0.00 | 0.00 | 0.00 | 69 | 1007.7 |
| 20260505180002 | 59 | 250 | 4.0 | 0.0 | 0.00 | 0.00 | 0.00 | 69 | 1007.5 |
| 20260505175501 | 59 | 251 | 5.0 | 0.0 | 0.00 | 0.00 | 0.00 | 68 | 1007.6 |
| 20260505175002 | 59 | 261 | 4.0 | 0.0 | 0.00 | 0.00 | 0.00 | 67 | 1007.4 |
| 20260505174502 | 59 | 268 | 4.0 | 0.0 | 0.00 | 0.00 | 0.00 | 66 | 1007.4 |
| 20260505174002 | 59 | 272 | 2.0 | 0.0 | 0.00 | 0.00 | 0.00 | 65 | 1007.4 |
| 20260505173501 | 59 | 276 | 3.0 | 0.0 | 0.00 | 0.00 | 0.00 | 64 | 1007.4 |
| 20260505173002 | 60 | 285 | 5.0 | 0.0 | 0.00 | 0.00 | 0.00 | 63 | 1007.4 |
| 20260505172502 | 60 | 267 | 2.0 | 0.0 | 0.00 | 0.00 | 0.00 | 61 | 1007.3 |
| 20260505172002 | 60 | 315 | 10.0 | 0.0 | 0.00 | 0.00 | 0.00 | 60 | 1007.3 |
| 20260505171502 | 60 | 285 | 5.0 | 0.0 | 0.00 | 0.00 | 0.00 | 62 | 1007.1 |
| 20260505171001 | 60 | 267 | 10.0 | 0.0 | 0.00 | 0.00 | 0.00 | 65 | 1007.2 |
| 20260505170502 | 60 | 266 | 7.0 | 0.0 | 0.00 | 0.00 | 0.00 | 69 | 1007.2 |
| 20260505170002 | 60 | 256 | 3.0 | 0.0 | 0.00 | 0.00 | 0.00 | 76 | 1007.2 |
| 20260505165502 | 60 | 216 | 5.0 | 0.0 | 0.00 | 0.00 | 0.00 | 75 | 1007.0 |
| 20260505165001 | 60 | 207 | 5.0 | 0.0 | 0.00 | 0.00 | 0.00 | 74 | 1007.0 |
| 20260505164502 | 60 | 216 | 6.0 | 0.0 | 0.00 | 0.00 | 0.00 | 74 | 1006.9 |
| 20260505164002 | 60 | 222 | 2.0 | 0.0 | 0.00 | 0.00 | 0.00 | 74 | 1007.0 |
| 20260505163502 | 60 | 203 | 6.0 | 0.0 | 0.00 | 0.00 | 0.00 | 74 | 1006.9 |
| 20260505163002 | 60 | 211 | 7.0 | 0.0 | 0.00 | 0.00 | 0.00 | 73 | 1006.9 |
| 20260505162501 | 61 | 192 | 4.0 | 0.0 | 0.00 | 0.00 | 0.00 | 72 | 1006.9 |
| 20260505162002 | 61 | 0 | 0.0 | 0.0 | 0.00 | 0.00 | 0.00 | 71 | 1007.0 |
| 20260505161501 | 61 | 249 | 2.0 | 0.0 | 0.00 | 0.00 | 0.00 | 71 | 1006.9 |
| 20260505161002 | 60 | 288 | 3.0 | 0.0 | 0.00 | 0.00 | 0.00 | 71 | 1006.9 |
| 20260505160501 | 60 | 315 | 2.0 | 0.0 | 0.00 | 0.00 | 0.00 | 69 | 1006.8 |
| 20260505153001 | 59 | 154 | 3.0 | 0.0 | 0.00 | 0.00 | 0.00 | 83 | 1006.8 |
| 20260505152502 | 58 | 127 | 3.0 | 0.0 | 0.00 | 0.00 | 0.00 | 83 | 1006.7 |
| 20260505152001 | 58 | 149 | 3.0 | 0.0 | 0.00 | 0.00 | 0.00 | 82 | 1006.8 |
| 20260505151502 | 58 | 175 | 3.0 | 0.0 | 0.00 | 0.00 | 0.00 | 83 | 1006.9 |